Погода в Зренянине

Сербия     45°22′00″N   20°23′50″E
темп.,
°C
ветер,
м/с
пор.,
м/с
влажн.,
%
обл.,
%
осадки,
мм/ч
давл.,
гПа
погр.,
м
11 мая, вт
вт1123:00+17юв6145821 0.0 1016360
02:00+15юв5145739 0.0 1016324
05:00+14юв514555 0.0 1015311
08:00+17юв612583 0.0 1015415
11:00+22ююв78510 0.0 1014814
14:00+24юв89450 0.0 10131023
17:00+24юв79481 0.0 1011811
20:00+19юв7155085 0.0 1010396
12 мая, ср
ср1223:00+18юв8174561 0.0 1010464
02:00+17юв817452 0.0 1008517
05:00+15юв61657100 0.2 1007457
08:00+17юв71361100 0.5 1007575
11:00+20ююв6654100 0.3 1007999
14:00+20зсз4464100 1.1 1006867
17:00+18ссз6873100 1.2 1006698
20:00+15вюв2391100 2.4 100679
13 мая, чт
чт1323:00+14ююз3695100 2.1 1007213
02:00+13ю349588 4.1 100687
05:00+12юз239163 0.3 100556
08:00+16зюз237299 0.3 1006413
11:00+20ююз34549 0.0 10051260
14:00+21з45476 0.7 10041620
17:00+18з5862100 1.7 1005936
20:00+13з367452 1.8 1007108
14 мая, пт
пт1423:00+13юз237460 0.0 100859
02:00+13ю3582100 0.0 1008170
05:00+12ю249172 0.5 1009136
08:00+14ююз348475 2.1 1010257
11:00+19зюз34595 0.4 10101161
14:00+21зсз364561 0.9 10102337
17:00+21ссз344563 0.0 10091476
20:00+13юз4992100 2.6 1012356
15 мая, сб
сб1523:00+13зюз2492100 1.2 1012156
02:00+12ю229178 1.3 101349
05:00+11юв33935 0.0 101339
08:00+15юв34755 0.0 1013313
11:00+19юв4455100 0.0 1012934
14:00+21юв4446100 0.0 10101946
17:00+20св3557100 0.0 1008304
20:00+17всв41071100 0.6 1007283